Tracking 34142 objects as of 18-May-2026
HD Live streaming from Space Station
objects crossing your sky now

HULIANWANG DIGUI-167

Track HULIANWANG DIGUI-167 now!
10-day predictions


NORAD ID: 68659
Int'l Code: 2026-076D
Perigee: 1,092.9 km
Apogee: 1,098.4 km
Inclination: 86.5 °
Period: 107.0 minutes
Semi major axis: 7466 km
RCS: Unknown
Launch date: April 8, 2026
Source: People's Republic of China (PRC)
Launch site: Taiyaun Space Center, China (TSC)
Your satellite tracking list
Your tracking list is empty




NASA's NSSDC Master Catalog

Two Line Element Set (TLE):
1 68659U 26076D   26136.72586275 -.00000017  00000-0 -54407-4 0  9999
2 68659  86.4989  54.5904 0003717  96.6610 263.4959 13.45591481  5197
Source of the keplerian elements: AFSPC